sat.trackr.live / text

‹ back to catalog

STARLINK-31824

NORAD 59804 · 2024-093Y

PAYLOAD ACTIVE UNKNOWN

§ Identity

Operator
Country
US
Launch date
2024-05-18
Launch site
AFETR
Launch vehicle
Mass (kg)
RCS (m²)

Purposes: comms

External: N2YO · Heavens-Above · Gunter

§ Orbital elements

Epoch: 2026-05-25T00:03:27.194976Z

Period
94.27 min
Inclination
43.0009°
Eccentricity
0.0001314
Mean motion
15.27582905 rev/d
Perigee alt
482.1 km
Apogee alt
483.9 km
Semi-major
6,861.2 km
B*
-1.9046e-4
RAAN
138.1599°
Arg perigee
269.8555°
Mean anomaly
90.2146°
Rev number
11,436

§ Raw data

STARLINK-318241 59804U 24093Y   26145.00239809 -.00005500  00000+0 -19046-3 0  99972 59804  43.0009 138.1599 0001314 269.8555  90.2146 15.27582905114360

JSON: /api/v1/satellites/59804 · /tle

For live sub-satellite position, see the globe view (requires WebGL).

§ Visibility from observer

Set your observer location to see the next 7 days of passes ≥ 10°. The values pass through the URL so the page stays shareable.

No JS? Fill the form by hand. The geolocation button needs JavaScript.